TimeEDT,TemperatureF,Dew PointF,Humidity,Sea Level PressureIn,VisibilityMPH,Wind Direction,Wind SpeedMPH,Gust SpeedMPH,PrecipitationIn,Events,Conditions,WindDirDegrees,DateUTC
12:56 AM,37.0,34.0,89,29.82,10.0,WNW,5.8,-,0.00,,Overcast,300,2012-11-03 04:56:00
1:56 AM,37.9,34.0,86,29.82,10.0,WNW,8.1,-,N/A,,Overcast,300,2012-11-03 05:56:00
2:30 AM,37.4,33.8,87,29.81,10.0,WNW,8.1,-,N/A,,Overcast,300,2012-11-03 06:30:00
2:56 AM,37.9,33.1,83,29.83,10.0,WNW,6.9,-,N/A,,Overcast,300,2012-11-03 06:56:00
3:56 AM,37.0,33.1,86,29.83,10.0,WNW,6.9,-,N/A,,Overcast,290,2012-11-03 07:56:00
4:56 AM,37.0,33.1,86,29.84,10.0,WNW,8.1,-,N/A,,Overcast,300,2012-11-03 08:56:00
5:56 AM,37.0,33.1,86,29.85,10.0,WNW,10.4,-,N/A,,Overcast,300,2012-11-03 09:56:00
6:56 AM,37.0,33.1,86,29.87,10.0,WNW,10.4,-,N/A,,Overcast,300,2012-11-03 10:56:00
7:56 AM,37.0,32.0,82,29.89,10.0,WNW,8.1,-,N/A,,Overcast,300,2012-11-03 11:56:00
8:56 AM,37.9,33.1,83,29.91,10.0,NW,8.1,-,N/A,,Overcast,310,2012-11-03 12:56:00
9:56 AM,39.0,32.0,76,29.92,10.0,NW,9.2,-,N/A,,Overcast,310,2012-11-03 13:56:00
10:56 AM,39.9,32.0,73,29.93,10.0,NNW,13.8,-,N/A,,Overcast,330,2012-11-03 14:56:00
11:56 AM,39.9,32.0,73,29.94,10.0,NNW,13.8,-,0.00,,Overcast,340,2012-11-03 15:56:00
12:03 PM,39.2,32.0,75,29.92,10.0,NW,17.3,20.7,0.00,Rain,Light Rain,320,2012-11-03 16:03:00
12:12 PM,39.2,33.8,81,29.93,10.0,NW,12.7,-,0.00,Rain,Light Rain,320,2012-11-03 16:12:00
12:42 PM,41.0,32.0,70,29.92,10.0,NNW,15.0,-,0.00,Rain,Light Rain,330,2012-11-03 16:42:00
12:56 PM,42.1,32.0,67,29.94,10.0,NNW,13.8,19.6,0.00,,Overcast,330,2012-11-03 16:56:00
1:08 PM,41.0,32.0,70,29.92,10.0,NW,12.7,19.6,N/A,,Overcast,320,2012-11-03 17:08:00
1:25 PM,39.2,32.0,75,29.92,10.0,NW,10.4,-,N/A,Rain,Light Rain,320,2012-11-03 17:25:00
1:56 PM,42.1,32.0,67,29.93,10.0,NW,10.4,-,0.00,,Overcast,310,2012-11-03 17:56:00
2:56 PM,42.1,30.9,65,29.94,10.0,NW,12.7,-,N/A,,Overcast,320,2012-11-03 18:56:00
3:56 PM,41.0,30.9,67,29.96,10.0,NW,11.5,-,N/A,,Overcast,310,2012-11-03 19:56:00
4:56 PM,41.0,30.0,65,29.97,10.0,WNW,13.8,-,N/A,,Overcast,300,2012-11-03 20:56:00
5:56 PM,41.0,30.0,65,29.98,10.0,WNW,9.2,-,N/A,,Overcast,300,2012-11-03 21:56:00
6:56 PM,39.9,30.9,70,29.99,10.0,WNW,8.1,-,N/A,,Overcast,300,2012-11-03 22:56:00
7:56 PM,39.9,30.0,68,30.01,10.0,WNW,10.4,-,N/A,,Overcast,300,2012-11-03 23:56:00
8:56 PM,39.9,30.9,70,30.01,10.0,NW,12.7,-,N/A,,Overcast,310,2012-11-04 00:56:00
9:56 PM,39.9,30.0,68,30.02,10.0,NW,6.9,-,N/A,,Overcast,320,2012-11-04 01:56:00
10:56 PM,39.0,30.0,70,30.02,10.0,WNW,9.2,-,N/A,,Overcast,300,2012-11-04 02:56:00
11:25 PM,39.2,30.2,70,30.02,10.0,WNW,8.1,-,N/A,,Overcast,290,2012-11-04 03:25:00
11:56 PM,39.0,30.9,73,30.02,10.0,NW,8.1,-,N/A,,Overcast,310,2012-11-04 03:56:00